Terminal Aerodrome Forecast
Issued by NWS

Home | Current Version | Previous Version | Text Only | Print | Product List | Glossary On
Versions: 1 2 3 4 5 6 7 8 9 10 11 12 13 14 15 16 17 18 19 20 21 22 23 24 25 26 27 28 29 30
000
FTUS41 KALY 271700 RRB
TAFPSF
TAF
KPSF 271758Z 2718/2818 32012G20KT 4SM -SN OVC025
      TEMPO 2718/2719 2SM -SN VV009
     FM272100 36012G22KT 4SM -SN OVC025
     FM272300 33014G24KT P6SM VCSH OVC045
     FM280600 32012G20KT P6SM OVC050
     FM281700 32010G16KT P6SM SCT050=

USA.gov is the U.S. government's official web portal to all federal, state and local government web resources and services.